FW8327 Weather Reports


time (UTC)temp
C
wind
direction
speed
KPH
gust
KPH
rain 1hr
cm
rain 24hr
cm
rain mn
cm
humidity
%
barometer
mb
20260503190702 10 148 0.0 0.0 0.00 0.00 0.00 86 1013.6
20260503190158 10 154 0.0 0.0 0.00 0.00 0.00 79 1014.0
20260503185655 10 166 0.0 0.0 0.00 0.00 0.00 78 1013.9
20260503185150 10 192 0.0 0.0 0.00 0.00 0.00 76 1013.9
20260503184645 10 161 0.0 0.0 0.00 0.00 0.00 77 1013.8
20260503184142 10 159 0.0 0.0 0.00 0.00 0.00 78 1014.1
20260503183638 10 173 0.0 0.0 0.00 0.00 0.00 77 1013.9
20260503183136 10 154 0.0 0.0 0.00 0.00 0.00 78 1014.2
20260503182634 10 171 0.0 0.0 0.00 0.00 0.00 77 1014.1
20260503182132 11 230 0.0 0.0 0.00 0.00 0.00 75 1014.3
20260503181629 11 208 0.0 3.2 0.00 0.00 0.00 72 1014.4
20260503181126 11 285 1.6 3.2 0.00 0.00 0.00 68 1014.5
20260503180623 12 189 0.0 1.6 0.00 0.00 0.00 62 1014.1
20260503180121 13 188 0.0 1.6 0.00 0.00 0.00 56 1014.2
20260503175617 14 96 0.0 0.0 0.00 0.00 0.00 55 1014.1
20260503175114 14 220 0.0 0.0 0.00 0.00 0.00 56 1013.9
20260503174611 14 129 0.0 1.6 0.00 0.00 0.00 54 1014.1
20260503174108 15 239 0.0 1.6 0.00 0.00 0.00 55 1014.4
20260503173603 15 71 0.0 0.0 0.00 0.00 0.00 56 1014.3
20260503173100 15 144 0.0 0.0 0.00 0.00 0.00 55 1014.5
20260503172557 15 267 1.6 3.2 0.00 0.00 0.00 55 1014.6
20260503172054 15 180 0.0 0.0 0.00 0.00 0.00 55 1014.6
20260503171550 15 170 1.6 4.8 0.00 0.00 0.00 53 1014.5
20260503171048 15 16 1.6 3.2 0.00 0.00 0.00 53 1014.7
20260503170544 15 206 0.0 0.0 0.00 0.00 0.00 53 1014.8
20260503150930 13 192 0.0 1.6 0.00 0.00 0.00 55 1016.0
20260503150426 13 154 0.0 0.0 0.00 0.00 0.00 55 1015.9
20260503131314 10 166 0.0 0.0 0.00 0.00 0.00 61 1016.3
20260503130812 9 143 0.0 0.0 0.00 0.00 0.00 62 1016.2
20260503130309 9 174 1.6 3.2 0.00 0.00 0.00 62 1016.1
20260503110703 5 171 0.0 0.0 0.00 0.00 0.00 72 1015.7
20260503110200 5 151 0.0 0.0 0.00 0.00 0.00 73 1015.6
20260503100126 4 179 0.0 0.0 0.00 0.00 0.00 74 1015.5
20260503081510 3 158 0.0 0.0 0.00 0.00 0.00 76 1015.6
20260503081007 3 160 0.0 0.0 0.00 0.00 0.00 76 1015.6
20260503080503 3 158 0.0 0.0 0.00 0.00 0.00 76 1015.7
20260503072939 3 148 0.0 0.0 0.00 0.00 0.00 77 1015.5
20260503072431 3 147 0.0 0.0 0.00 0.00 0.00 77 1015.6
20260503071928 3 147 0.0 0.0 0.00 0.00 0.00 76 1015.6
20260503071425 3 147 0.0 0.0 0.00 0.00 0.00 76 1016.0
20260503070921 3 147 0.0 0.0 0.00 0.00 0.00 75 1015.8
20260503070418 3 147 0.0 0.0 0.00 0.00 0.00 75 1015.6
20260503060339 3 147 0.0 0.0 0.00 0.00 0.00 78 1016.2
20260503054826 3 147 0.0 0.0 0.00 0.00 0.00 77 1016.3
20260503054321 3 147 0.0 0.0 0.00 0.00 0.00 78 1016.5
20260503053819 3 147 0.0 0.0 0.00 0.00 0.00 77 1016.5
20260503053318 3 147 0.0 0.0 0.00 0.00 0.00 77 1016.3
20260503052814 3 147 0.0 0.0 0.00 0.00 0.00 77 1016.5
20260503052311 3 147 0.0 0.0 0.00 0.00 0.00 78 1016.4
20260503051807 3 147 0.0 0.0 0.00 0.00 0.00 79 1016.4
20260503051304 3 147 0.0 0.0 0.00 0.00 0.00 79 1016.3
20260503050801 3 147 0.0 0.0 0.00 0.00 0.00 79 1016.4
20260503050257 3 147 0.0 0.0 0.00 0.00 0.00 79 1016.5
20260503045755 3 147 0.0 0.0 0.00 0.00 0.00 80 1016.5
20260503045252 3 147 0.0 0.0 0.00 0.00 0.00 79 1016.4
20260503044748 3 147 0.0 0.0 0.00 0.00 0.00 80 1016.5
20260503044245 3 147 0.0 0.0 0.00 0.00 0.00 80 1016.5
20260503043743 3 147 0.0 0.0 0.00 0.00 0.00 81 1016.5
20260503043239 3 146 0.0 0.0 0.00 0.00 0.00 82 1016.7
20260503042735 3 146 0.0 0.0 0.00 0.00 0.00 82 1016.4
20260503042232 3 146 0.0 0.0 0.00 0.00 0.00 82 1016.6
20260503041727 3 146 0.0 0.0 0.00 0.00 0.00 81 1016.4
20260503041225 3 146 0.0 0.0 0.00 0.00 0.00 82 1016.4
20260503040723 3 146 0.0 0.0 0.00 0.00 0.00 83 1016.5
20260503040220 3 146 0.0 0.0 0.00 0.00 0.00 82 1016.4
20260503035717 3 146 0.0 0.0 0.00 0.00 0.00 82 1016.4
20260503035215 3 146 0.0 0.0 0.00 0.00 0.00 82 1016.7
20260503034712 3 146 0.0 0.0 0.00 0.00 0.00 81 1016.6
20260503034209 3 146 0.0 0.0 0.00 0.00 0.00 80 1016.6
20260503033706 3 146 0.0 0.0 0.00 0.00 0.00 80 1016.4
20260503033203 3 146 0.0 0.0 0.00 0.00 0.00 79 1016.6
20260503032701 3 146 0.0 0.0 0.00 0.00 0.00 79 1016.5
20260503032200 3 146 0.0 0.0 0.00 0.00 0.00 78 1016.5
20260503031657 4 146 0.0 0.0 0.00 0.00 0.00 77 1016.5
20260503031155 4 146 0.0 0.0 0.00 0.00 0.00 76 1016.6
20260503030650 4 146 0.0 0.0 0.00 0.00 0.00 76 1016.6
20260503030147 5 146 0.0 0.0 0.00 0.00 0.00 75 1016.6
20260503025644 5 146 0.0 0.0 0.00 0.00 0.00 73 1016.6
20260503025142 5 146 0.0 0.0 0.00 0.00 0.00 74 1016.7
20260503024638 5 146 0.0 0.0 0.00 0.00 0.00 73 1016.7
20260503024136 5 146 0.0 0.0 0.00 0.00 0.00 72 1016.6
20260503023632 5 145 0.0 0.0 0.00 0.00 0.00 70 1016.6
20260503023129 5 146 0.0 0.0 0.00 0.00 0.00 69 1016.7
20260503022625 5 145 0.0 0.0 0.00 0.00 0.00 69 1016.5
20260503022120 5 145 0.0 0.0 0.00 0.00 0.00 67 1016.5
20260503021617 5 145 0.0 0.0 0.00 0.00 0.00 68 1016.3
20260503021114 5 143 0.0 0.0 0.00 0.00 0.00 69 1016.5
20260503020611 5 136 0.0 0.0 0.00 0.00 0.00 71 1016.5
20260503020108 6 81 0.0 0.0 0.00 0.00 0.00 69 1016.5
20260503015605 6 166 0.0 0.0 0.00 0.00 0.00 68 1016.2
20260503015102 6 167 0.0 0.0 0.00 0.00 0.00 63 1016.4
20260503014557 6 167 0.0 0.0 0.00 0.00 0.00 61 1016.5
20260503014055 6 167 0.0 0.0 0.00 0.00 0.00 59 1016.4
20260503013553 6 167 0.0 0.0 0.00 0.00 0.00 61 1016.4
20260503013050 6 167 0.0 0.0 0.00 0.00 0.00 64 1016.2
20260503012548 6 167 0.0 0.0 0.00 0.00 0.00 66 1016.2
20260503012044 6 167 0.0 0.0 0.00 0.00 0.00 67 1016.3
20260503011540 6 167 0.0 0.0 0.00 0.00 0.00 68 1016.2
20260503011038 6 182 0.0 0.0 0.00 0.00 0.00 66 1016.3
20260503010534 6 183 0.0 0.0 0.00 0.00 0.00 66 1016.4
20260503010032 6 183 0.0 0.0 0.00 0.00 0.00 66 1016.3
20260503005528 7 184 0.0 0.0 0.00 0.00 0.00 66 1016.3
20260503005026 7 214 0.0 0.0 0.00 0.00 0.00 60 1016.2
20260503004522 8 218 0.0 0.0 0.00 0.00 0.00 58 1016.2
20260503004020 8 263 0.0 0.0 0.00 0.00 0.00 58 1016.2
20260503003516 8 228 0.0 0.0 0.00 0.00 0.00 57 1015.9
20260503003014 8 271 0.0 0.0 0.00 0.00 0.00 56 1016.2
20260503002511 8 274 0.0 0.0 0.00 0.00 0.00 54 1016.0
20260503002007 9 229 0.0 0.0 0.00 0.00 0.00 51 1016.3
20260503001504 10 290 0.0 0.0 0.00 0.00 0.00 48 1016.0
20260503001001 10 307 0.0 0.0 0.00 0.00 0.00 47 1015.9
20260503000459 10 300 1.6 3.2 0.00 0.00 0.00 45 1016.1
20260502235956 10 321 1.6 1.6 0.00 0.00 0.00 46 1015.9
20260502235452 10 308 0.0 1.6 0.00 0.00 0.00 46 1016.1
20260502234950 10 306 1.6 3.2 0.00 0.00 0.00 43 1015.8
20260502234446 10 306 3.2 3.2 0.00 0.00 0.00 44 1016.0
20260502233944 10 301 3.2 3.2 0.00 0.00 0.00 42 1015.8
20260502233438 10 312 3.2 4.8 0.00 0.00 0.00 44 1015.7
20260502232936 10 316 3.2 3.2 0.00 0.00 0.00 45 1015.9
20260502232432 10 287 3.2 3.2 0.00 0.00 0.00 42 1015.8
20260502231929 10 347 0.0 0.0 0.00 0.00 0.00 46 1015.8
20260502231426 10 268 0.0 0.0 0.00 0.00 0.00 44 1015.9
20260502230924 10 283 3.2 4.8 0.00 0.00 0.00 42 1015.9
20260502230417 10 286 3.2 4.8 0.00 0.00 0.00 44 1015.9
20260502225915 11 298 8.0 17.7 0.00 0.00 0.00 44 1015.9
20260502225411 11 283 9.7 16.1 0.00 0.00 0.00 42 1015.9
20260502224908 10 297 6.4 11.3 0.00 0.00 0.00 40 1015.9
20260502224403 10 344 3.2 3.2 0.00 0.00 0.00 42 1016.0
20260502223901 10 332 0.0 0.0 0.00 0.00 0.00 41 1016.0
20260502223359 10 287 3.2 3.2 0.00 0.00 0.00 44 1016.2
20260502222856 10 307 3.2 3.2 0.00 0.00 0.00 42 1016.2
20260502222354 10 290 3.2 4.8 0.00 0.00 0.00 45 1016.0
20260502221849 11 300 3.2 3.2 0.00 0.00 0.00 44 1016.0
20260502221346 11 272 4.8 6.4 0.00 0.00 0.00 44 1016.0
20260502220843 11 277 4.8 6.4 0.00 0.00 0.00 44 1016.0
20260502220339 10 298 3.2 3.2 0.00 0.00 0.00 44 1015.8
20260502215835 10 306 3.2 4.8 0.00 0.00 0.00 43 1015.7
20260502215333 10 299 3.2 3.2 0.00 0.00 0.00 47 1016.0
20260502214830 10 218 3.2 3.2 0.00 0.00 0.00 47 1015.8
20260502214326 10 284 3.2 4.8 0.00 0.00 0.00 43 1016.0
20260502213824 10 297 3.2 4.8 0.00 0.00 0.00 45 1016.0
20260502213321 11 307 3.2 3.2 0.00 0.00 0.00 43 1015.9
20260502212819 10 252 1.6 3.2 0.00 0.00 0.00 48 1016.1
20260502212317 10 301 3.2 3.2 0.00 0.00 0.00 45 1015.9
20260502211814 10 307 4.8 4.8 0.00 0.00 0.00 46 1016.0
20260502211309 10 270 3.2 4.8 0.00 0.00 0.00 46 1015.9
20260502210807 10 270 8.0 14.5 0.00 0.00 0.00 46 1016.0
20260502210305 10 277 3.2 4.8 0.00 0.00 0.00 50 1016.0
20260502205802 10 287 6.4 11.3 0.00 0.00 0.00 46 1016.1
20260502205257 10 302 3.2 3.2 0.00 0.00 0.00 48 1016.1
20260502204755 10 300 3.2 3.2 0.00 0.00 0.00 47 1016.1
20260502204252 10 320 3.2 3.2 0.00 0.00 0.00 46 1016.4
20260502203749 10 293 3.2 4.8 0.00 0.00 0.00 50 1016.1
20260502203247 10 300 0.0 0.0 0.00 0.00 0.00 47 1016.1
20260502202741 10 314 3.2 4.8 0.00 0.00 0.00 49 1016.1
20260502202240 10 292 4.8 4.8 0.00 0.00 0.00 48 1016.4
20260502201737 10 286 3.2 3.2 0.00 0.00 0.00 47 1016.3
20260502201233 10 287 3.2 3.2 0.00 0.00 0.00 49 1016.4
20260502200729 9 279 0.0 1.6 0.00 0.00 0.00 48 1016.4
20260502200226 10 313 9.7 14.5 0.00 0.00 0.00 49 1016.5
20260502195724 10 266 3.2 4.8 0.00 0.00 0.00 49 1016.5
20260502195221 9 306 1.6 3.2 0.00 0.00 0.00 52 1016.6
20260502194717 10 313 3.2 3.2 0.00 0.00 0.00 48 1016.6
20260502194214 9 299 3.2 3.2 0.00 0.00 0.00 48 1016.8
20260502193710 10 277 6.4 11.3 0.00 0.00 0.00 48 1016.8
20260502193208 10 313 1.6 3.2 0.00 0.00 0.00 48 1016.8
20260502192702 9 283 1.6 3.2 0.00 0.00 0.00 53 1016.9
20260502192200 8 305 0.0 0.0 0.00 0.00 0.00 50 1016.5
20260502191657 10 311 1.6 3.2 0.00 0.00 0.00 50 1016.7
20260502191154 9 311 3.2 6.4 0.00 0.00 0.00 51 1016.9